Home   Weather   Black Mountain   Past weeks

Flag for USA Past Weather in Black Mountain, North Carolina, USA — Yesterday and Last 2 Weeks

Now
42 °F

Clear.


Feels Like: 37 °F
Forecast: 35 / 54 °F
Wind: 8 mph from North

Location: Asheville Regional Airport

Current Time: Dec 7, 2016 at 5:47:38 am

Latest Report: Dec 7, 2016 at 4:54 am


Visibility: 10 mi

Pressure: 30.00 "Hg (27.43 "Hg at 729m altitude)

Humidity: 76%

Dew Point: 35 °F

Location of Black MountainLocation

Past Weather in Black Mountain — Graph

°F

Black Mountain Temperature Yesterday

Maximum temperature yesterday: 50 °F (at 10:54 pm)
Minimum temperature yesterday: 42 °F (at 12:54 pm)
Average temperature yesterday: 45 °F

High & Low Weather Summary for the Past Weeks

 TemperatureHumidityPressure
High69 °F (Nov 24, 1:54 pm)97% (Nov 25, 7:03 am)30.31 "Hg (Nov 25, 7:03 am)
Low22 °F (Nov 27, 4:54 am)18% (Nov 22, 1:54 pm)29.65 "Hg (Nov 30, 5:54 pm)
Average47 °F66%30.08 "Hg
* Reported Nov 22 3:54 am — Dec 7 3:54 am, Black Mountain, Weather by CustomWeather, © 2016

Note: Actual official high and low records may vary slightly from our data, if they occured in-between our weather recording intervals... More about our weather records

Advertising

Black Mountain Weather History for the Previous 24 Hours

Scroll right to see more
 ConditionsComfort  
Time TempWeatherWind HumidityBarometerVisibility
3:54 am
Wed, Dec 7
43 °FClear.9 mph79%29.97 "Hg10 mi
2:54 am44 °FClear.14 mph79%29.95 "Hg10 mi
1:54 am46 °FPassing clouds.14 mph77%29.93 "Hg10 mi
12:54 am48 °FPassing clouds.12 mph77%29.91 "Hg10 mi
11:54 pm
Tue, Dec 6
49 °FClear.18 mph80%29.89 "Hg10 mi
10:54 pm50 °FPassing clouds.17 mph86%29.88 "Hg10 mi
9:54 pm47 °FLow clouds.5 mph86%29.85 "Hg10 mi
8:54 pm45 °FPassing clouds.No wind90%29.84 "Hg10 mi
7:54 pm45 °FPassing clouds.3 mph90%29.83 "Hg10 mi
6:54 pm46 °FMostly cloudy.No wind83%29.82 "Hg10 mi
5:54 pm46 °FLow clouds.No wind83%29.79 "Hg10 mi
4:54 pm46 °FPartly sunny.No wind79%29.76 "Hg10 mi
3:54 pm46 °FPartly sunny.5 mph79%29.73 "Hg10 mi
2:54 pm45 °FLow clouds.No wind82%29.72 "Hg10 mi
1:54 pm44 °FPartly sunny.6 mph85%29.73 "Hg8 mi
1:01 pm42 °FLight rain. Overcast.8 mph89%29.77 "Hg10 mi
12:54 pm42 °FLight rain. Fog.7 mph89%29.76 "Hg2 mi
11:54 am43 °FLight rain. Fog.12 mph86%29.77 "Hg5 mi
10:54 am43 °FMostly cloudy.7 mph86%29.79 "Hg2 mi
9:54 am44 °FRain. Fog.8 mph89%29.78 "Hg2 mi
8:54 am44 °FLight rain. Fog.10 mph93%29.78 "Hg2 mi
8:01 am44 °FLight rain. Fog.10 mph93%29.81 "Hg2 mi
6:54 am44 °FRain. Fog.10 mph93%29.83 "Hg4 mi
5:54 am44 °FLight rain. Fog.5 mph93%29.83 "Hg4 mi
Weather by CustomWeather, © 2016

See weather overviewHow to use our weather pages